Muskegon, MI

4:46 PM EDT on October 17, 2019 (GMT -0400)
Muskegon County

Weather History for KMKG - September, 2019

Change the Weather History Date:

Monday, September 16, 2019

  Actual Average Record
Temperature  
Mean Temperature 71 °F 62 °F  
Max Temperature 79 °F 71 °F 87 °F (2018)
Min Temperature 62 °F 53 °F 31 °F (1929)
Degree Days  
Heating Degree Days 0 5  
Month to date heating degree days 20 46  
Since 1 July heating degree days 24 76  
Cooling Degree Days 6 2  
Month to date cooling degree days 42 43  
Year to date cooling degree days 587 550  
Growing Degree Days 20 (Base 50)    
Moisture  
Dew Point 63 °F    
Average Humidity 76    
Maximum Humidity 93    
Minimum Humidity 58    
Precipitation  
Precipitation 0.00 in 0.14 in 1.40 in (1913)
Month to date precipitation 3.59 2.02  
Year to date precipitation 30.72 22.60  
Snow  
Snow 0.00 in 0.00 in - ()
Month to date snowfall 0.0 0.0  
Since 1 July snowfall 0.0 0.0  
Since 1 September snowfall 0.0 0.0  
Snow Depth 0.00 in    
Sea Level Pressure  
Sea Level Pressure 30.10 in    
Wind  
Wind Speed 4 mph (NW)    
Max Wind Speed 13 mph    
Max Gust Speed 16 mph    
Visibility 9 miles    
Events      
T = Trace of Precipitation, MM = Missing Value Source: NWS Daily Summary

Daily Weather History Graph

Daily Weather History Graph

Search for Another Location

Airport or City:

Astronomy

Sep. 16, 2019 Rise Set
Actual Time 7:25 AM EDT 7:53 PM EDT
Civil Twilight 6:56 AM EDT 8:22 PM EDT
Nautical Twilight 6:23 AM EDT 8:55 PM EDT
Astronomical Twilight 5:48 AM EDT 9:30 PM EDT
Moon 9:24 PM EDT (9/16) 9:34 AM EDT (9/16)
Length of Visible Light 13h 25m
Length of Day
12h 28m
Waning Gibbous, 94% of the Moon is Illuminated
Sep 16
Waning Gibbous
Sep 21
Last Quarter
Sep 28
New
Oct 5
First Quarter
Oct 13
Full

Hourly Weather History & Observations

Time (EDT) Temp. Dew Point Humidity Pressure Visibility Wind Dir Wind Speed Gust Speed Precip Events Conditions
12:55 AM 69.1 °F 64.0 °F 84% 30.04 in 10.0 mi Calm Calm - N/A   Overcast
1:55 AM 68.0 °F 63.0 °F 84% 30.03 in 10.0 mi Calm Calm - N/A   Mostly Cloudy
2:55 AM 68.0 °F 64.0 °F 87% 30.04 in 10.0 mi Calm Calm - N/A   Overcast
3:52 AM 69.8 °F 64.4 °F 83% 30.05 in 10.0 mi Calm Calm - N/A   Overcast
3:55 AM 69.1 °F 64.0 °F 84% 30.05 in 9.0 mi North 3.5 mph - N/A   Overcast
4:11 AM 69.1 °F 64.0 °F 84% 30.06 in 10.0 mi North 4.6 mph - N/A   Overcast
4:55 AM 68.0 °F 64.0 °F 87% 30.06 in 10.0 mi Calm Calm - N/A   Overcast
5:04 AM 68.0 °F 64.0 °F 87% 30.06 in 10.0 mi Calm Calm - N/A   Overcast
5:55 AM 69.1 °F 64.0 °F 84% 30.06 in 10.0 mi NE 5.8 mph - N/A   Overcast
6:55 AM 66.9 °F 63.0 °F 87% 30.07 in 10.0 mi Calm Calm - N/A   Mostly Cloudy
7:38 AM 66.0 °F 63.0 °F 90% 30.09 in 5.0 mi North 3.5 mph - N/A   Scattered Clouds
7:55 AM 66.0 °F 63.0 °F 90% 30.09 in 4.0 mi NNE 3.5 mph - N/A   Mostly Cloudy
8:55 AM 69.1 °F 64.9 °F 87% 30.11 in 7.0 mi Calm Calm - N/A   Overcast
9:55 AM 72.0 °F 64.9 °F 78% 30.12 in 10.0 mi Calm Calm - N/A   Mostly Cloudy
10:55 AM 75.0 °F 64.9 °F 71% 30.12 in 10.0 mi NNE 5.8 mph - N/A   Mostly Cloudy
11:48 AM 75.9 °F 64.0 °F 67% 30.13 in 10.0 mi East 6.9 mph - N/A   Mostly Cloudy
11:55 AM 75.9 °F 63.0 °F 64% 30.13 in 10.0 mi East 6.9 mph - N/A   Mostly Cloudy
12:09 PM 77.0 °F 63.0 °F 62% 30.13 in 10.0 mi ENE 6.9 mph - N/A   Mostly Cloudy
12:55 PM 75.9 °F 62.1 °F 62% 30.12 in 10.0 mi NW 5.8 mph - N/A   Mostly Cloudy
1:14 PM 77.0 °F 64.9 °F 66% 30.13 in 10.0 mi West 6.9 mph - N/A   Mostly Cloudy
1:55 PM 75.9 °F 64.0 °F 67% 30.12 in 10.0 mi West 11.5 mph - N/A   Mostly Cloudy
2:55 PM 75.9 °F 64.0 °F 67% 30.11 in 10.0 mi West 11.5 mph - N/A   Scattered Clouds
3:55 PM 75.9 °F 63.0 °F 64% 30.10 in 10.0 mi WSW 8.1 mph - N/A   Scattered Clouds
4:55 PM 78.1 °F 63.0 °F 60% 30.10 in 10.0 mi West 6.9 mph - N/A   Scattered Clouds
5:55 PM 75.0 °F 63.0 °F 66% 30.10 in 10.0 mi West 9.2 mph - N/A   Scattered Clouds
6:55 PM 72.0 °F 61.0 °F 68% 30.11 in 10.0 mi WNW 6.9 mph - N/A   Scattered Clouds
7:55 PM 66.0 °F 61.0 °F 84% 30.12 in 10.0 mi WSW 3.5 mph - N/A   Scattered Clouds
8:55 PM 64.0 °F 61.0 °F 90% 30.13 in 10.0 mi Calm Calm - N/A   Mostly Cloudy
9:55 PM 64.0 °F 61.0 °F 90% 30.13 in 9.0 mi Calm Calm - N/A   Mostly Cloudy
10:55 PM 62.1 °F 60.1 °F 93% 30.14 in 9.0 mi Calm Calm - N/A   Mostly Cloudy
11:08 PM 63.0 °F 60.1 °F 90% 30.14 in 1.8 mi Calm Calm - N/A   Clear
11:22 PM 64.0 °F 61.0 °F 90% 30.14 in 3.0 mi Calm Calm - N/A   Clear
11:55 PM 64.0 °F 62.1 °F 93% 30.14 in 10.0 mi Calm Calm - N/A   Clear